weather.gov     
National Weather Service

Regional Weather Roundup
NWS Homepage
This page is being discontinued on March 12, 2014.
The same data is available at this site. Please update your bookmarks.
Thank you, and we apologize for the inconvenience.
Please send an email to SR-SRH.Webmaster@noaa.gov with any concerns.


Current Version
Previous Version:    01  02  03  04  05  06  07  08  09  10  11  12  13  14  15  16  17  18  19  20  21  22  23  24  25  26  27  28  29  30  
   31  32  33  34  35  36  37  38  39  40  41  42  43  44  45  46  47  48  49  50  51  52  53  
[Printable]
168
ASUS43 KTOP 310408
RWRKS

WEATHER ROUNDUP FOR KANSAS
NATIONAL WEATHER SERVICE GOODLAND KS
1100 PM CDT THU OCT 30 2014

NOTE:  "FAIR" INDICATES FEW OR NO CLOUDS BELOW 12,000 FEET WITH NO
SIGNIFICANT WEATHER AND/OR OBSTRUCTIONS TO VISIBILITY.

KSZ001>006-013>018-027>032-041>047-310500-
NORTHWEST KANSAS

CITY           SKY/WX    TMP DP  RH WIND       PRES   REMARKS
GOODLAND       CLEAR     39  28  64 NE3       30.41R
HAYS           CLEAR     48  30  49 N13       30.36R
HILL CITY      CLEAR     48  33  56 NE15      30.39R
RUSSELL        CLEAR     50  34  54 N20G32    30.34R
$$

KSZ061>065-074>080-084>089-310500-
SOUTHWEST KANSAS

CITY           SKY/WX    TMP DP  RH WIND       PRES   REMARKS
DODGE CITY     CLEAR     41  30  65 N8        30.34R
ELKHART          N/A     52  26  36 N3          N/A
GARDEN CITY    CLEAR     46  30  53 NE13      30.35R
GREAT BEND     CLEAR     52  32  46 N15       30.33R
LIBERAL        CLEAR     45  27  49 N7        30.36R
PRATT          CLEAR     48  32  53 N10       30.31R
$$

KSZ066>073-081>083-090>101-310500-
SOUTHEAST KANSAS

CITY           SKY/WX    TMP DP  RH WIND       PRES   REMARKS
CHANUTE        CLEAR     54  41  61 N9        30.19R
COFFEYVILLE    CLEAR     53  40  61 NW8       30.18R
HUTCHINSON     CLEAR     55  35  47 N15G24    30.30R
MEDICINE LODGE   N/A     48  35  60 N8        30.28R
NEWTON         CLEAR     52  34  50 N17       30.28R
PARSONS        CLEAR     49  40  71 N8        30.20R
WICHITA INTL   CLEAR     57  35  43 N15       30.26R
WICHITA JABRA  CLEAR     53  36  52 N13       30.26R
WICHITA MCCONL CLEAR     56  34  43 N15       30.26R
WINFIELD       CLEAR     56  37  49 N16       30.24R
$$

KSZ007>012-019>026-033>040-048>060-102>105-310500-
NORTHEAST KANSAS

CITY           SKY/WX    TMP DP  RH WIND       PRES   REMARKS
CONCORDIA      CLEAR     44  37  76 N14G21    30.35R
EMPORIA        CLEAR     53  39  59 N13G22    30.24R
LAWRENCE       CLEAR     52  40  63 N22G28    30.21R
MANHATTAN      CLEAR     50  38  63 N13G22    30.30R
MARYSVILLE     CLOUDY    45  37  76 N17G24    30.31R
OLATHE IND     CLEAR     52  40  63 NW18G25   30.19R
OLATHE EXE     CLEAR     54  40  59 N16G22    30.17R
SALINA         CLEAR     52  37  56 N14       30.32R
TOPEKA BILLARD CLEAR     52  39  61 NW16G25   30.24R
TOPEKA FORBES  CLEAR     52  39  61 N18G24    30.22R
$$




U.S. Dept. of Commerce
NOAA National Weather Service
1325 East West Highway
Silver Spring, MD 20910
E-mail: w-nws.webmaster@noaa.gov
Page last modified: May 16, 2007
NATIONAL WEATHER SERVICE: for Safety, for Work, for Fun - FOR LIFE